Weather History for Wenatchee, WA

Change the Weather History Date:

Tuesday, August 7, 2012

  Actual Average Record
Temperature  
Mean Temperature 76 °F 68 °F  
Max Temperature 95 °F 85 °F 103 °F (1972)
Min Temperature 57 °F 52 °F 52 °F (2002)
Degree Days  
Heating Degree Days 0 1  
Month to date heating degree days 1 7  
Since 1 June heating degree days 280 246  
Since 1 July heating degree days 39 59  
Cooling Degree Days 11 4  
Month to date cooling degree days 39 34  
Year to date cooling degree days 195 163  
Since 1 June cooling degree days 195 158  
Growing Degree Days 33 (Base 50)    
Moisture  
Dew Point 48 °F    
Average Humidity 32    
Maximum Humidity 55    
Minimum Humidity 14    
Precipitation  
Precipitation T in 0.01 in 0.47 in (1976)
Month to date precipitation T 0.07  
Year to date precipitation 14.99 10.02  
Snow  
Snow 0.00 in 0.00 in - ()
Month to date snowfall 0.0 0.0  
Since 1 June snowfall 0.0 0.0  
Since 1 July snowfall 0.0 0.0  
Snow Depth 0.00 in    
Sea Level Pressure  
Sea Level Pressure 29.93 in    
Wind  
Wind Speed 7 mph (WNW)    
Max Wind Speed 16 mph    
Max Gust Speed 24 mph    
Visibility 10 miles    
Events      
T = Trace of Precipitation, MM = Missing Value Source: NWS Daily Summary

Daily Weather History Graph

Daily Weather History Graph

Search for Another Location

Airport:

Trip Planner

Search our weather history database for the weather conditions in past years. The results will help you decide how hot, cold, wet, or windy it might be!

Date:

Astronomy

Aug. 07, 2012 Rise Set
Actual Time 5:47 AM PDT 8:24 PM PDT
Civil Twilight 5:12 AM PDT 8:59 PM PDT
Nautical Twilight 4:28 AM PDT 9:43 PM PDT
Astronomical Twilight 3:36 AM PDT 10:34 PM PDT
Moon 10:35 PM PDT (8/7) 12:10 PM PDT (8/7)
Length of Visible Light 15h 46m
Length of Day
14h 37m
Waning Gibbous, 69% of the Moon is Illuminated
Aug 7
Waning Gibbous
Aug 9
Last Quarter
Aug 17
New
Aug 24
First Quarter
Aug 31
Full

Hourly Weather History & Observations

Time (PDT) Temp. Heat Index Dew Point Humidity Pressure Visibility Wind Dir Wind Speed Gust Speed Precip Events Conditions
12:55 AM 77.0 °F - 50.0 °F 39% 29.99 in 10.0 mi NNW 5.8 mph - N/A   Clear
1:55 AM 78.1 °F - 50.0 °F 37% 29.99 in 10.0 mi WNW 8.1 mph - N/A   Clear
2:55 AM 72.0 °F - 52.0 °F 49% 30.00 in 10.0 mi West 9.2 mph - N/A   Clear
3:55 AM 71.1 °F - 51.1 °F 49% 30.00 in 10.0 mi WNW 6.9 mph - N/A   Clear
4:55 AM 68.0 °F - 51.1 °F 55% 30.01 in 10.0 mi North - - N/A   Clear
5:55 AM 68.0 °F - 50.0 °F 52% 30.03 in 10.0 mi West 8.1 mph - N/A   Clear
6:55 AM 66.9 °F - 50.0 °F 54% 30.03 in 10.0 mi West 9.2 mph - N/A   Clear
7:55 AM 70.0 °F - 50.0 °F 49% 30.04 in 10.0 mi West 6.9 mph - N/A   Clear
8:55 AM 73.0 °F - 48.9 °F 42% 30.04 in 10.0 mi West 6.9 mph - N/A   Clear
9:55 AM 78.1 °F - 50.0 °F 37% 30.02 in 10.0 mi West 10.4 mph - N/A   Clear
10:55 AM 82.0 °F - 50.0 °F 33% 30.00 in 10.0 mi WNW 6.9 mph - N/A   Clear
11:55 AM 86.0 °F - 48.0 °F 27% 29.98 in 10.0 mi West 4.6 mph - N/A   Clear
12:55 PM 90.0 °F - 46.0 °F 22% 29.94 in 10.0 mi WSW 6.9 mph - N/A   Clear
1:55 PM 93.9 °F - 45.0 °F 18% 29.92 in 10.0 mi West 8.1 mph - N/A   Clear
2:55 PM 95.0 °F - 44.1 °F 17% 29.89 in 10.0 mi West 6.9 mph - N/A   Clear
3:55 PM 98.1 °F - 44.1 °F 16% 29.86 in 10.0 mi WNW 8.1 mph - N/A   Clear
4:55 PM 100.0 °F - 43.0 °F 14% 29.84 in 10.0 mi WNW 8.1 mph - N/A   Clear
5:55 PM 99.0 °F - 43.0 °F 15% 29.82 in 10.0 mi West 5.8 mph - N/A   Clear
6:55 PM 98.1 °F - 44.1 °F 16% 29.80 in 10.0 mi West 10.4 mph - N/A   Clear
7:55 PM 93.9 °F - 46.0 °F 19% 29.79 in 10.0 mi Calm Calm - N/A   Clear
8:55 PM 91.0 °F - 45.0 °F 20% 29.81 in 10.0 mi Calm Calm - N/A   Clear
9:55 PM 88.0 °F - 46.0 °F 23% 29.83 in 10.0 mi WNW 5.8 mph - N/A   Clear
10:55 PM 84.9 °F 83.3 °F 54.0 °F 34% 29.84 in 10.0 mi NNW 15.0 mph - N/A   Clear
11:55 PM 82.9 °F 81.9 °F 54.0 °F 37% 29.85 in 10.0 mi NNW 16.1 mph 24.2 mph N/A   Clear